Starlink 32414

operational
NORAD ID: 61667 Int'l Des: 2024-193 Owner: SPXS Country: US Constellation: starlink
LEOCIRCULAR

About Starlink 32414

Description loading...

Live Position

Loading 3D Globe...

Upcoming Passes

Altitude History

Altitude vs Time

uPlot chart will show altitude changes over time

Two-Line Element Set

1 61667U 24193G 25350.67366413 -.00000303 00000-0 18773-5 0 9994
2 61667 53.1592 116.8149 0001139 86.9829 273.1302 15.30190294 63819
Epoch: Dec 16, 2025 • Age: 18 hours

Current Status

Altitude 494.4 km
Velocity 7.62 km/s
Sub-Earth Point -52.79°S, 148.83°E
Launch Date Oct 26, 2024
Age 1.1 years
Type internet

Technical Details

Classification Payload
Mass 730.00 kg
Dry Mass 700.00 kg
Total Mass 730.00 kg
Length 0.30 m
Diameter 4.10 m
Span 29.00 m
Shape Box + pan
Manufacturer SPXS
Bus Type Starlink V2M
Phase Status In Orbit
Owner/State SPXS/US

Large Constellations

Loading constellations...